Regional Weather Roundup
Issued by NWS

Home | Current Version | Previous Version | Graphics & Text | Print | Product List | Glossary On
Versions: 1 2 3 4 5 6 7 8 9 10 11 12 13 14 15 16 17 18 19 20 21 22 23 24 25 26 27 28 29 30 31 32 33 34 35 36 37 38 39 40 41 42 43 44 45 46 47 48 49 50
516
ASUS43 KLOT 201003
RWRIL

ILLINOIS REGIONAL WEATHER ROUNDUP
NATIONAL WEATHER SERVICE CHICAGO/ROMEOVILLE IL
400 AM CST MON FEB 20 2017

NOTE: "FAIR" INDICATES FEW OR NO CLOUDS BELOW 12,000 FEET WITH NO
SIGNIFICANT WEATHER AND/OR OBSTRUCTIONS TO VISIBILITY.

* THESE STATIONS ARE NOT UNDER NWS QUALITY CONTROL. THEY ALSO MAY NOT
  REPORT WEATHER SUCH AS PRECIPITATION OR FOG.

ILZ001-002-007-009-015-016-024-201100-
NORTHWEST ILLINOIS

CITY           SKY/WX    TMP DP  RH WIND       PRES   REMARKS
MOLINE         PTCLDY    49  45  86 E5        30.00F FOG
STERLING*      MOCLDY    46  45  96 SE8       30.05S FOG
SAVANNA*       PTCLDY    46  44  91 SE6       30.03R
$$

ILZ003-004-008-010-011-017-018-201100-
NORTH CENTRAL ILLINOIS

CITY           SKY/WX    TMP DP  RH WIND       PRES   REMARKS
ROCKFORD       CLOUDY    47  42  83 CALM      30.08F
FREEPORT*      CLOUDY    41  39  91 E6        30.07S
ROCHELLE*      PTCLDY    42  41  97 SE9       30.07S FOG
DE KALB*       PTCLDY    45  44  94 SE8       30.08F FOG
PERU*          CLOUDY    47  44  90 SE7       30.07S FOG
$$

ILZ005-006-012>014-019>023-201100-
NORTHEAST ILLINOIS

CITY           SKY/WX    TMP DP  RH WIND       PRES   REMARKS
CHICAGO-OHARE  CLOUDY    44  39  82 CALM      30.10S
CHICAGO-MIDWAY MOCLDY    47  41  80 SE6       30.11F
AURORA         PTCLDY    44  41  89 SE7       30.09F FOG
LANSING*       CLOUDY    39  39  99 E3        30.13S FOG
JOLIET*        PTCLDY    47  46  93 SE6       30.11S FOG
WAUKEGAN       PTCLDY    37  31  78 E5        30.11S WCI  33
DUPAGE AIRPORT PTCLDY    46  42  86 SE6       30.09R FOG
KANKAKEE*      MOCLDY    43  42  97 SE6       30.13S FOG
WHEELING       CLOUDY    43  36  76 CALM      30.12S
MORRIS*        MOCLDY    44  43  96 CALM      30.08S FOG
ROMEOVILLE*    PTCLDY    46  46 100 SE8       30.10F FOG
NORTHERLY ISL    N/A     38  35  89 NE1         N/A
$$

LMZ740>746-201100-
SOUTHERN LAKE MICHIGAN

STATION/POSITION SKY/WX   TEMP    WIND        PRES    VSBY  WAVE
                          AIR SEA DIR/SP/G                  HT/PER
                          (F)     (DEG/KT/KT) (MB)    (MI)  (FT/S)
HARRISON CRIB              49     140/ 15/ 16   N/A
BURNHAM HARBOR             38      CALM  /  2   N/A
CALUMET HARBOR             43      90/  4/  6 1019.3F
BURNS HARBOR               51     130/  5/  8 1021.0S
MICHIGAN CITY              48     110/  9/  9   N/A
$$

ILZ025>027-034>036-040-047-049-050-058-095>099-201100-
WEST-CENTRAL ILLINOIS

CITY           SKY/WX    TMP DP  RH WIND       PRES   REMARKS
QUINCY         PTCLDY    53  50  89 SE9       29.99S
GALESBURG*     PTCLDY    48  48  98 SE5         N/A  FOG
MACOMB*        PTCLDY    49  49  97 SE12      30.04S FOG
JACKSONVILLE*  CLOUDY    49  48  97 SE8       30.04F FOG
PITTSFIELD*    PTCLDY    51  51  97 SE7       30.02F FOG
$$

ILZ028>032-037-038-041>044-048-051>054-059>061-201100-
CENTRAL ILLINOIS

CITY           SKY/WX    TMP DP  RH WIND       PRES   REMARKS
PONTIAC        FOG       43  43  99 SE12      30.10S VSB 3/4
BLOOMINGTON    LGT RAIN  45  45 100 S13       30.10R VSB 1/4
DECATUR        FOG       49  48  97 SE8       30.10S VSB 1/4
PEORIA         CLOUDY    49  48  97 SE6       30.06F FOG
LACON*         PTCLDY    46  46  97 SE8       30.06S FOG
LINCOLN*       DRZL/FOG  49  49 100 SE7       30.09R VSB 1/2
SPRINGFIELD    CLOUDY    52  50  93 SE12      30.07S FOG
TAYLORVILLE    FOG       49  49 100 SE9       30.08S VSB 1/2
$$

ILZ033-039-045-046-055>057-062-063-201100-
EAST-CENTRAL ILLINOIS

CITY           SKY/WX    TMP DP  RH WIND       PRES   REMARKS
CHAMPAIGN      FOG       47  45  93 SE8       30.11S VSB 1/4
RANTOUL*       DRZL/FOG  47  47  99 SE7       30.12S VSB 1/4
MATTOON        FOG       47  47 100 SE10      30.11S VSB 1/4
PARIS*         FOG       43  43 100 E6        30.14R VSB 1/4
$$

ILZ079-100>102-201100-
SOUTHWEST ILLINOIS

CITY           SKY/WX    TMP DP  RH WIND       PRES   REMARKS
ALTON          PTCLDY    48  48  99 E7        30.06S FOG
BELLEVILLE     CLEAR     48  48 100 E5        30.05F FOG
CAHOKIA*       CLOUDY    53  49  86 S6        30.05S
SPARTA*        PTCLDY    49  49  99 E8        30.07F FOG
$$

ILZ064>066-069>071-074>076-080>082-084>086-088>090-092>094-201100-
SOUTH-CENTRAL ILLINOIS

CITY           SKY/WX    TMP DP  RH WIND       PRES   REMARKS
CARBONDALE     FOG       46  46 100 E6        30.09S VSB 1/4
CAIRO*         FOG       45  45 100 NE3       30.09F VSB<1/4
EFFINGHAM*     FOG       47  47 100 E6        30.14R VSB 1/4
MARION         CLOUDY    50  50 100 E3        30.10F FOG
MT. VERNON     PTCLDY    48  47  96 E5        30.11S FOG
CENTRALIA*     FOG       49  49 100 E7        30.09S VSB 1
SALEM*         FOG       50  49  95 SE6       30.11R VSB 3/4
METROPOLIS*    FOG       48  48 100 CALM      30.11S VSB 1/2
$$

ILZ067-068-072-073-078-083-087-091-201100-
SOUTHEAST ILLINOIS

CITY           SKY/WX    TMP DP  RH WIND       PRES   REMARKS
LAWRENCEVILLE  FOG       42  42 100 E5        30.14S VSB 1/4
FLORA*         FOG       47  46  99 CALM      30.13R VSB 1/4
FAIRFIELD*       N/A     45  45 100 CALM      30.12R FOG
HARRISBURG*    MOCLDY    47  47 100 E3        30.13R FOG
ROBINSON*      FOG       41  41 100 CALM      30.15S VSB 1/4
CARMI*         FOG       38  38 100 CALM      30.13R VSB 1/4
$$

ABBREVIATIONS USED IN REMARKS
   TC - TEMPERATURE IN CELSIUS
  WCI - WIND CHILL INDEX
   HX - HEAT INDEX
  VSB - VISIBILITY
$$





USA.gov is the U.S. government's official web portal to all federal, state and local government web resources and services.